Orbital Elements at Epoch 2454648.5 (2008-Jul-01.0) TDB
Reference: JPL 25 (heliocentric ecliptic J2000)
Element | Value | Uncertainty (1-sigma) | Units |
e | .4779867315780701 | 7.4365e-07 | |
a | 4.163958734586046 | 3.7657e-07 | au |
q | 2.173641708615305 | 3.0613e-06 | au |
i | 17.41328266915038 | 6.3861e-05 | deg |
node | 67.41067853630557 | 0.00019539 | deg |
peri | 308.6435217095749 | 0.0011729 | deg |
M | 286.4703961645387 | 0.0002235 | deg |
tp | 2455282.395658872491 (2010-Mar-26.89565887) | 0.0020124 | TDB |
period | 3103.54503887645 8.50 | 0.000421 1.153e-06 | d yr |
n | .1159963833263163 | 1.5735e-08 | deg/d |
Q | 6.154275760556787 | 5.5656e-07 | au |
|
| | Orbit Determination Parameters
Additional Information
|